When you browse on this site, cookies collect data to enhance your experience and personalize the content and advertising you see.
Visit our Privacy Policy to learn more. By continuing to use the site, you agree to this use of cookies and data.
  • In Denmark
  • List of Countries
  • For 7 days
  • Water Temperature
  • Satellite Maps
  • Weather Map
  • Weather Widgets
  • user-avatar
    Login

    Hourly Weather Artemovka

    Today, 20 May, Monday

    Time Temperature Precipitation Wind Pressure Humidity
    00:00 +9°C° 0 mm 2 mps 746 mmHg 72%
    01:00 +10°C° 0 mm 1 mps 747 mmHg 73%
    02:00 +9°C° 0 mm 1 mps 747 mmHg 73%
    03:00 +9°C° 0 mm 1 mps 747 mmHg 73%
    04:00 +9°C° 0 mm 1 mps 747 mmHg 73%
    05:00 +10°C° 0 mm 1 mps 747 mmHg 73%
    06:00 +9°C° 0 mm 0 mps 747 mmHg 73%
    07:00 +11°C° 0 mm 0 mps 747 mmHg 68%
    08:00 +13°C° 0 mm 0 mps 747 mmHg 63%
    09:00 +15°C° 0 mm 0 mps 748 mmHg 57%
    10:00 +18°C° 0 mm 1 mps 748 mmHg 56%
    11:00 +18°C° 0 mm 2 mps 748 mmHg 54%
    12:00 +19°C° 0 mm 2 mps 748 mmHg 53%
    13:00 +19°C° 0 mm 3 mps 748 mmHg 53%
    14:00 +20°C° 0 mm 3 mps 747 mmHg 54%
    15:00 +20°C° 0 mm 3 mps 747 mmHg 54%
    16:00 +20°C° 0 mm 3 mps 747 mmHg 57%
    17:00 +20°C° 0 mm 2 mps 747 mmHg 60%
    18:00 +19°C° 0 mm 2 mps 747 mmHg 62%
    19:00 +18°C° 0 mm 2 mps 747 mmHg 66%
    20:00 +16°C° 0 mm 2 mps 747 mmHg 70%
    21:00 +14°C° 0 mm 1 mps 747 mmHg 73%
    22:00 +13°C° 0 mm 1 mps 747 mmHg 74%
    23:00 +12°C° 0 mm 2 mps 748 mmHg 74%

    Tomorrow, 21 May, Tuesday

    Time Temperature Precipitation Wind Pressure Humidity
    00:00 +10°C° 0 mm 2 mps 748 mmHg 74%
    01:00 +10°C° 0 mm 2 mps 748 mmHg 74%
    02:00 +9°C° 0 mm 2 mps 748 mmHg 73%
    03:00 +9°C° 0 mm 2 mps 748 mmHg 72%
    04:00 +9°C° 0 mm 2 mps 748 mmHg 73%
    05:00 +10°C° 0 mm 2 mps 748 mmHg 74%
    06:00 +10°C° 0 mm 2 mps 748 mmHg 75%
    07:00 +13°C° 0 mm 2 mps 748 mmHg 72%
    08:00 +15°C° 0 mm 2 mps 748 mmHg 69%
    09:00 +17°C° 0 mm 2 mps 748 mmHg 66%
    10:00 +18°C° 0 mm 2 mps 748 mmHg 62%
    11:00 +19°C° 0 mm 2 mps 748 mmHg 59%
    12:00 +21°C° 0 mm 2 mps 748 mmHg 55%
    13:00 +21°C° 0 mm 3 mps 747 mmHg 54%
    14:00 +22°C° 0 mm 3 mps 747 mmHg 53%
    15:00 +22°C° 0 mm 3 mps 746 mmHg 52%
    16:00 +22°C° 0 mm 3 mps 746 mmHg 57%
    17:00 +22°C° 0 mm 3 mps 746 mmHg 62%
    18:00 +21°C° 0 mm 3 mps 745 mmHg 68%
    19:00 +20°C° 0.1 mm 3 mps 745 mmHg 72%
    20:00 +18°C° 0.1 mm 3 mps 745 mmHg 77%
    21:00 +16°C° 0.1 mm 3 mps 745 mmHg 81%
    22:00 +16°C° 0 mm 3 mps 745 mmHg 84%
    23:00 +14°C° 0 mm 3 mps 745 mmHg 86%

    Day after tomorrow, 22 May, Wednesday

    Time Temperature Precipitation Wind Pressure Humidity
    00:00 +13°C° 0 mm 3 mps 745 mmHg 89%
    01:00 +13°C° 0 mm 3 mps 745 mmHg 89%
    02:00 +13°C° 0 mm 3 mps 744 mmHg 89%
    03:00 +12°C° 0 mm 3 mps 744 mmHg 89%
    04:00 +12°C° 0 mm 3 mps 744 mmHg 87%
    05:00 +12°C° 0 mm 3 mps 744 mmHg 86%
    06:00 +12°C° 0 mm 3 mps 744 mmHg 85%
    07:00 +14°C° 0 mm 3 mps 743 mmHg 80%
    08:00 +17°C° 0 mm 3 mps 743 mmHg 74%
    09:00 +19°C° 0 mm 3 mps 743 mmHg 69%
    10:00 +20°C° 0 mm 3 mps 743 mmHg 65%
    11:00 +21°C° 0 mm 3 mps 743 mmHg 61%
    12:00 +22°C° 0 mm 3 mps 742 mmHg 57%
    13:00 +23°C° 0 mm 4 mps 742 mmHg 57%
    14:00 +23°C° 0 mm 4 mps 742 mmHg 58%
    15:00 +23°C° 0 mm 5 mps 741 mmHg 58%
    16:00 +22°C° 0.2 mm 4 mps 741 mmHg 63%
    17:00 +22°C° 0.2 mm 4 mps 740 mmHg 68%
    18:00 +21°C° 0.2 mm 4 mps 740 mmHg 72%
    19:00 +20°C° 0.1 mm 3 mps 740 mmHg 77%
    20:00 +18°C° 0.1 mm 3 mps 740 mmHg 82%
    21:00 +17°C° 0.1 mm 3 mps 740 mmHg 87%
    22:00 +17°C° 0 mm 3 mps 739 mmHg 88%
    23:00 +15°C° 0 mm 4 mps 739 mmHg 88%

    23 May, Thursday

    Time Temperature Precipitation Wind Pressure Humidity
    00:00 +15°C° 0 mm 4 mps 739 mmHg 89%
    01:00 +15°C° 0 mm 4 mps 739 mmHg 89%
    02:00 +15°C° 0 mm 4 mps 739 mmHg 89%
    03:00 +15°C° 0 mm 5 mps 738 mmHg 89%
    04:00 +15°C° 0 mm 5 mps 738 mmHg 89%
    05:00 +14°C° 0 mm 5 mps 738 mmHg 90%
    06:00 +14°C° 0 mm 5 mps 738 mmHg 90%
    07:00 +16°C° 0.1 mm 5 mps 738 mmHg 87%
    08:00 +17°C° 0.1 mm 5 mps 738 mmHg 84%
    09:00 +20°C° 0.1 mm 5 mps 738 mmHg 81%
    10:00 +21°C° 0.2 mm 5 mps 738 mmHg 75%
    11:00 +22°C° 0.2 mm 5 mps 737 mmHg 69%
    12:00 +25°C° 0.2 mm 5 mps 737 mmHg 64%
    13:00 +25°C° 0.7 mm 5 mps 737 mmHg 64%
    14:00 +25°C° 0.7 mm 5 mps 737 mmHg 64%
    15:00 +25°C° 0.7 mm 5 mps 737 mmHg 64%
    16:00 +23°C° 0.7 mm 5 mps 737 mmHg 68%
    17:00 +23°C° 0.7 mm 4 mps 737 mmHg 72%
    18:00 +22°C° 0.7 mm 3 mps 737 mmHg 76%
    19:00 +21°C° 0.2 mm 3 mps 737 mmHg 80%
    20:00 +19°C° 0.2 mm 2 mps 737 mmHg 84%
    21:00 +17°C° 0.2 mm 2 mps 737 mmHg 87%
    22:00 +17°C° 0 mm 2 mps 737 mmHg 89%
    23:00 +16°C° 0 mm 1 mps 737 mmHg 91%

    24 May, Friday

    Time Temperature Precipitation Wind Pressure Humidity
    00:00 +16°C° 0 mm 1 mps 738 mmHg 93%
    01:00 +15°C° 0 mm 1 mps 738 mmHg 94%
    02:00 +15°C° 0 mm 1 mps 738 mmHg 95%
    03:00 +15°C° 0 mm 1 mps 738 mmHg 96%
    04:00 +15°C° 0 mm 2 mps 738 mmHg 96%
    05:00 +15°C° 0 mm 2 mps 738 mmHg 96%
    06:00 +15°C° 0 mm 2 mps 738 mmHg 96%
    07:00 +16°C° 0 mm 2 mps 738 mmHg 93%
    08:00 +17°C° 0 mm 2 mps 739 mmHg 91%
    09:00 +18°C° 0 mm 2 mps 739 mmHg 88%
    10:00 +19°C° 0.1 mm 3 mps 739 mmHg 86%
    11:00 +19°C° 0.1 mm 3 mps 738 mmHg 83%
    12:00 +20°C° 0.1 mm 3 mps 738 mmHg 81%
    13:00 +21°C° 0.1 mm 3 mps 738 mmHg 77%
    14:00 +21°C° 0.1 mm 3 mps 738 mmHg 74%
    15:00 +23°C° 0.1 mm 2 mps 738 mmHg 70%
    16:00 +23°C° 0.2 mm 2 mps 738 mmHg 72%
    17:00 +23°C° 0.2 mm 2 mps 738 mmHg 75%
    18:00 +21°C° 0.2 mm 2 mps 737 mmHg 77%
    19:00 +20°C° 1 mm 2 mps 737 mmHg 82%
    20:00 +19°C° 1 mm 2 mps 737 mmHg 87%
    21:00 +17°C° 1 mm 2 mps 737 mmHg 92%
    22:00 +17°C° 0.6 mm 2 mps 737 mmHg 92%
    23:00 +17°C° 0.6 mm 2 mps 737 mmHg 91%

    25 May, Saturday

    Time Temperature Precipitation Wind Pressure Humidity
    00:00 +16°C° 0.6 mm 2 mps 737 mmHg 91%
    01:00 +16°C° 0 mm 2 mps 737 mmHg 92%
    02:00 +15°C° 0 mm 2 mps 737 mmHg 92%
    03:00 +15°C° 0 mm 1 mps 736 mmHg 92%
    04:00 +16°C° 0 mm 2 mps 737 mmHg 92%
    05:00 +16°C° 0 mm 2 mps 737 mmHg 91%
    06:00 +16°C° 0 mm 2 mps 737 mmHg 91%
    07:00 +18°C° 0 mm 2 mps 737 mmHg 86%
    08:00 +19°C° 0 mm 2 mps 737 mmHg 81%
    09:00 +21°C° 0 mm 2 mps 737 mmHg 76%
    10:00 +23°C° 1.1 mm 2 mps 737 mmHg 71%
    11:00 +23°C° 1.1 mm 2 mps 736 mmHg 67%
    12:00 +24°C° 1.1 mm 2 mps 736 mmHg 63%
    13:00 +24°C° 0.7 mm 2 mps 736 mmHg 65%
    14:00 +24°C° 0.7 mm 3 mps 736 mmHg 66%
    15:00 +24°C° 0.7 mm 3 mps 736 mmHg 68%
    16:00 +24°C° 0 mm 3 mps 736 mmHg 69%
    17:00 +24°C° 0 mm 2 mps 735 mmHg 70%
    18:00 +24°C° 0 mm 2 mps 735 mmHg 71%
    19:00 +21°C° 0.3 mm 2 mps 735 mmHg 74%
    20:00 +21°C° 0.3 mm 1 mps 735 mmHg 78%
    21:00 +19°C° 0.3 mm 1 mps 735 mmHg 81%
    22:00 +18°C° 0.2 mm 1 mps 735 mmHg 83%
    23:00 +18°C° 0.2 mm 1 mps 734 mmHg 85%
    Show more